Location: Cruquius
(52.3348°N, 4.6319°E)
Time: 12:34:35
(UTC+00:00)

Cosmos 1844 Rocket - Pass Details

Date: 12 May 2021
Orbit: 823 x 846 km, 71.0° (Epoch: 19 June)

Event Time Altitude Azimuth Distance (km) Brightness Sun altitude
Rises 20:05:01 0° 220° (SW) 3,351 5.8 -5.6°
Reaches altitude 10° 20:07:27 10° 223° (SW) 2,423 5.1 -5.9°
Maximum altitude 20:12:58 64° 305° (NW) 918 3.3 -6.5°
Drops below altitude 10° 20:18:33 10° 27° (NNE) 2,449 5.3 -7.2°
Sets 20:21:02 0° 31° (NNE) 3,390 6.0 -7.5°
